Simultaneous Nadir Overpasses (SNOs) Predictions

Prediction of SNOs between FY3D and NOAA-19 Satellite Orbit:

Table of predicted SNOs for the next 14.0 days since TLE Epoch: 2/19/2022
Index Date (FY3D) Time (FY3D) Lat,Lon (FY3D) SZA (FY3D ) Date (NOAA-19) Time (NOAA-19) Lat,Lon (NOAA-19) SZA (NOAA-19 ) Distance(km) Time Diff (sec)
1 03/03/2022 11:22:52 77.72, -9.34 85.24 03/03/2022 11:21:38 77.72, -9.83 85.30 11.61 74
2 03/03/2022 12:13:38 -77.77, 157.73 94.71 03/03/2022 12:12:35 -77.77, 157.71 94.69 0.54 63
3 03/03/2022 13:04:25 77.79, -35.03 85.30 03/03/2022 13:03:37 77.76, -35.10 85.30 3.09 48
4 03/03/2022 13:55:10 -77.79, 132.24 94.71 03/03/2022 13:54:35 -77.77, 132.23 94.72 2.16 35
5 03/03/2022 14:45:57 77.81, -60.52 85.30 03/03/2022 14:45:36 77.80, -60.37 85.29 3.60 21
6 03/03/2022 15:36:42 -77.82, 106.75 94.71 03/03/2022 15:36:35 -77.78, 106.75 94.74 4.20 7
7 03/03/2022 16:27:28 77.79, -85.81 85.25 03/03/2022 16:27:36 77.81, -85.85 85.26 2.22 8
8 03/03/2022 17:18:12 -77.80, 81.46 94.76 03/03/2022 17:18:33 -77.82, 81.48 94.75 2.58 21
9 03/03/2022 18:08:59 77.81,-111.30 85.25 03/03/2022 18:09:35 77.81,-111.33 85.24 0.85 36
10 03/03/2022 18:59:44 -77.82, 55.97 94.76 03/03/2022 19:00:33 -77.82, 56.00 94.77 0.87 49
11 03/03/2022 19:50:31 77.83,-136.79 85.25 03/03/2022 19:51:35 77.81,-136.82 85.21 2.41 64
12 03/03/2022 20:41:18 -77.92, 30.07 94.65 03/03/2022 20:42:31 -77.90, 30.95 94.76 20.66 73



Historial Predications of SNOs between FY3D and NOAA-19
